Regional Weather Roundup
Issued by NWS

Home | Current Version | Previous Version | Text Only | Print | Product List | Glossary Off
Versions: 1 2 3 4 5 6 7 8 9 10 11 12 13 14 15 16 17 18 19 20 21 22 23 24 25 26 27 28 29 30 31 32 33 34 35 36 37 38 39 40 41 42 43 44 45 46 47 48 49 50

000
ASUS44 KMEG 212200
RWRTN
TENNESSEE HOURLY STATE WEATHER ROUNDUP
NATIONAL WEATHER SERVICE MEMPHIS TN
400 PM CST SUN JAN 21 2018

TNZ002-004-019-021-049-052-054-088>092-212300-
WEST TENNESSEE

CITY           SKY/WX    TMP DP  RH WIND       PRES   REMARKS
MEMPHIS INTL   PTSUNNY   67  55  65 S14G25    29.99F
NWS MEMPHIS      N/A     68 N/A N/A MISG        N/A
JACKSON        FAIR      68  52  56 S10G20    30.00F
DYERSBURG      PTSUNNY   67  55  65 S10G20    29.98S
$$

TNZ008-025-027-028-033-062-065-066-212300-
NORTH MIDDLE TENNESSEE

CITY           SKY/WX    TMP DP  RH WIND       PRES   REMARKS
NASHVILLE      FAIR      68  48  48 S16       30.07S
CLARKSVILLE    FAIR      66  48  52 S8        30.02F
SMYRNA         FAIR      67  49  52 S9        30.08S
CROSSVILLE     CLOUDY    59  41  51 S8        30.15R
$$

TNZ061-075-076-078-094-096-097-212300-
SOUTH MIDDLE TENNESSEE

CITY           SKY/WX    TMP DP  RH WIND       PRES   REMARKS
$$

TNZ017-018-042-046-047-212300-
NORTHEAST TENNESSEE

CITY           SKY/WX    TMP DP  RH WIND       PRES   REMARKS
TRI CITIES     CLOUDY    57  42  57 E3        30.19R
$$

TNZ012-013-036-069-073-074-212300-
CENTRAL EAST TENNESSEE

CITY           SKY/WX    TMP DP  RH WIND       PRES   REMARKS
KNOXVILLE      FAIR      63  46  54 SW8       30.14S
OAK RIDGE      FAIR      62  42  47 CALM      30.16S
$$

TNZ083-085-099-212300-
SOUTHEAST TENNESSEE

CITY           SKY/WX    TMP DP  RH WIND       PRES   REMARKS
CHATTANOOGA    FAIR      68  41  37 S9        30.14S
$$

SKY/WX REPORTED AS FAIR MEANS FEW OR NO CLOUDS BELOW
12 THOUSAND FEET.





USA.gov is the U.S. government's official web portal to all federal, state and local government web resources and services.